Location: ??????????
(48.5701°N, 37.7703°E)
Time: 19:32:07
(UTC+00:00)

deb Kosmos-1763 - Pass Details

Date: 14 July 2020
Orbit: 464 x 480 km, 74.0° (Epoch: 11 August)

Event Time Altitude Azimuth Distance (km) Brightness Sun altitude
Exits shadow 00:15:52 16° 200° (SSW) 1,290 5.6 -11.1°
Maximum altitude 00:18:37 86° 114° (ESE) 475 4.0 -10.8°
Drops below altitude 10° 00:22:14 10° 24° (NNE) 1,637 8.1 -10.5°
Sets 00:24:22 0° 24° (NNE) 2,522 9.4 -10.2°
